Regional Weather Roundup
Issued by NWS

Home | Current Version | Previous Version | Graphics & Text | Print | Product List | Glossary Off
Versions: 1 2 3 4 5 6 7 8 9 10 11 12 13 14 15 16 17 18 19 20 21 22 23 24 25 26 27 28 29 30 31 32 33 34 35 36 37 38 39 40 41 42 43 44 45 46 47 48 49 50

000
ASUS43 KTOP 251308
RWRKS

WEATHER ROUNDUP FOR KANSAS
NATIONAL WEATHER SERVICE GOODLAND KS
700 AM CST SUN JAN 25 2015

NOTE:  "FAIR" INDICATES FEW OR NO CLOUDS BELOW 12,000 FEET WITH NO
SIGNIFICANT WEATHER AND/OR OBSTRUCTIONS TO VISIBILITY.

KSZ001>006-013>018-027>032-041>047-251400-
NORTHWEST KANSAS

CITY           SKY/WX    TMP DP  RH WIND       PRES   REMARKS
GOODLAND       PTCLDY    39  23  52 NW25G32   30.07R WCI  28
HAYS           CLEAR     39  23  52 NW25G32   29.98R WCI  28
HILL CITY      CLEAR     40  26  57 NW20G29   30.02R WCI  30
RUSSELL        MOCLDY    41  30  65 NW25G33   29.95R
$$

KSZ061>065-074>080-084>089-251400-
SOUTHWEST KANSAS

CITY           SKY/WX    TMP DP  RH WIND       PRES   REMARKS
DODGE CITY     CLEAR     38  24  57 NW20      30.04R WCI  28
ELKHART          N/A     36  23  59 W10         N/A  WCI  28
GARDEN CITY    CLEAR     38  24  57 NW21G29   30.06R WCI  28
GREAT BEND     PTCLDY    39  27  60 NW17      29.98R WCI  30
LIBERAL        PTCLDY    39  23  52 NW15      30.09S WCI  31
PRATT          CLEAR     39  28  65 NW23      29.98R WCI  29
$$

KSZ066>073-081>083-090>101-251400-
SOUTHEAST KANSAS

CITY           SKY/WX    TMP DP  RH WIND       PRES   REMARKS
CHANUTE        CLOUDY    47  35  63 NW22G33   29.75R
COFFEYVILLE    PTCLDY    48  33  56 NW15      29.78R
HUTCHINSON     CLOUDY    46  29  51 NW25G35   29.89R
MEDICINE LODGE   N/A     45  28  51 N25G36    29.94R
NEWTON         CLOUDY    43  32  65 NW22G28   29.87R
PARSONS        MOCLDY    48  35  60 NW21G31   29.77S
WICHITA INTL   CLOUDY    47  31  53 NW21G29   29.88R
WICHITA JABRA  MOCLDY    45  34  65 NW21G29   29.86R
WICHITA MCCONL MOCLDY    47  33  59 N20G26    29.87R
WINFIELD       PTCLDY    46  30  53 NW24      29.87R
$$

KSZ007>012-019>026-033>040-048>060-102>105-251400-
NORTHEAST KANSAS

CITY           SKY/WX    TMP DP  RH WIND       PRES   REMARKS
CONCORDIA      CLOUDY    42  33  70 NW21G30   29.87R
EMPORIA        CLOUDY    44  33  65 NW25G40   29.78R
LAWRENCE       CLOUDY    41  34  76 NW26G33   29.73R
MANHATTAN      CLOUDY    42  33  70 N8G22     29.82R
MARYSVILLE     CLOUDY    36  32  87 N22G31    29.80R WCI  24
OLATHE IND     LGT RAIN  40  35  83 NW25G36   29.70R WCI  29
OLATHE EXE     CLOUDY    42  36  79 NW16G25   29.67R
SALINA         CLOUDY    46  33  60 NW29G47   29.87R
TOPEKA BILLARD CLOUDY    41  31  67 NW22G37   29.76R
TOPEKA FORBES  CLOUDY    42  32  67 NW28G40   29.74R
$$


USA.gov is the U.S. government's official web portal to all federal, state and local government web resources and services.